{"data":{"norad_id":50176,"epoch":"2026-09-20T00:41:43.456416Z","epoch_age_seconds":85607,"freshness":"FRESH","line1":"1 50176U 21125W   26263.02897519 -.00002952  00000+0 -83374-4 0  9998","line2":"2 50176  53.1593  84.0483 0001241  89.8825 270.2318 15.31706730266158","mean_motion":15.3170673,"eccentricity":0.0001241,"inclination_deg":53.1593,"raan_deg":84.0483,"arg_perigee_deg":89.8825,"mean_anomaly_deg":270.2318,"bstar":-8.3374e-5,"rev_number":26615,"period_min":94.012774886744,"perigee_km":469.86999037386,"apogee_km":471.56987666475,"semimajor_km":6848.8569335193,"source":"CELESTRAK","updated_at":"2026-09-20T09:00:39.415873Z"}}